TimeAKST,TemperatureF,Dew PointF,Humidity,Sea Level PressureIn,VisibilityMPH,Wind Direction,Wind SpeedMPH,Gust SpeedMPH,PrecipitationIn,Events,Conditions,WindDirDegrees,DateUTC
12:16 AM,37.4,28.4,70,30.21,10.0,SSE,9.2,-,N/A,,Clear,150,2013-12-09 09:16:00
12:36 AM,37.4,30.2,75,30.21,10.0,SSE,11.5,-,N/A,,Clear,150,2013-12-09 09:36:00
12:56 AM,39.2,30.2,70,30.20,10.0,SSE,13.8,-,N/A,,Clear,150,2013-12-09 09:56:00
1:16 AM,41.0,30.2,65,30.21,10.0,SSE,12.7,-,N/A,,Clear,150,2013-12-09 10:16:00
1:36 AM,41.0,30.2,65,30.22,10.0,SE,12.7,-,N/A,,Clear,140,2013-12-09 10:36:00
1:56 AM,41.0,30.2,65,30.22,10.0,SSE,12.7,-,N/A,,Clear,150,2013-12-09 10:56:00
2:16 AM,41.0,32.0,70,30.22,10.0,SE,12.7,-,N/A,,Clear,140,2013-12-09 11:16:00
2:36 AM,41.0,30.2,65,30.22,10.0,SSE,9.2,-,N/A,,Clear,150,2013-12-09 11:36:00
2:56 AM,39.2,30.2,70,30.23,10.0,SSE,9.2,-,N/A,,Clear,150,2013-12-09 11:56:00
3:16 AM,39.2,30.2,70,30.22,10.0,SSE,8.1,-,N/A,,Clear,150,2013-12-09 12:16:00
3:36 AM,39.2,30.2,70,30.23,10.0,SE,8.1,-,N/A,,Clear,140,2013-12-09 12:36:00
3:56 AM,37.4,28.4,70,30.23,10.0,SSE,8.1,-,N/A,,Clear,150,2013-12-09 12:56:00
4:16 AM,37.4,28.4,70,30.22,10.0,SSE,10.4,-,N/A,,Clear,160,2013-12-09 13:16:00
4:36 AM,37.4,28.4,70,30.22,10.0,SSE,9.2,-,N/A,,Clear,150,2013-12-09 13:36:00
4:56 AM,37.4,28.4,70,30.22,10.0,SSE,6.9,-,N/A,,Clear,150,2013-12-09 13:56:00
5:16 AM,37.4,28.4,70,30.23,10.0,SSE,6.9,-,N/A,,Clear,150,2013-12-09 14:16:00
5:36 AM,35.6,28.4,75,30.23,10.0,SSE,6.9,-,N/A,,Clear,150,2013-12-09 14:36:00
5:56 AM,35.6,26.6,70,30.23,10.0,SSE,8.1,-,N/A,,Clear,150,2013-12-09 14:56:00
6:16 AM,37.4,28.4,70,30.22,10.0,SSE,9.2,-,N/A,,Clear,150,2013-12-09 15:16:00
6:36 AM,37.4,28.4,70,30.22,10.0,SSE,8.1,-,N/A,,Clear,150,2013-12-09 15:36:00
6:56 AM,37.4,28.4,70,30.22,10.0,SSE,9.2,-,N/A,,Clear,150,2013-12-09 15:56:00
7:16 AM,39.2,30.2,70,30.22,10.0,SSE,12.7,-,N/A,,Clear,150,2013-12-09 16:16:00
7:36 AM,39.2,30.2,70,30.21,10.0,SSE,11.5,-,N/A,,Clear,150,2013-12-09 16:36:00
7:56 AM,39.2,30.2,70,30.21,10.0,SSE,13.8,-,N/A,,Clear,150,2013-12-09 16:56:00
8:16 AM,41.0,30.2,65,30.20,10.0,SSE,11.5,-,N/A,,Clear,150,2013-12-09 17:16:00
8:36 AM,42.8,30.2,61,30.20,10.0,SSE,13.8,-,N/A,,Clear,150,2013-12-09 17:36:00
8:56 AM,42.8,30.2,61,30.20,10.0,SSE,15.0,-,N/A,,Clear,150,2013-12-09 17:56:00
9:16 AM,39.2,30.2,70,30.20,10.0,ESE,9.2,-,N/A,,Clear,120,2013-12-09 18:16:00
9:36 AM,41.0,30.2,65,30.21,10.0,ESE,10.4,-,N/A,,Clear,120,2013-12-09 18:36:00
9:56 AM,39.2,30.2,70,30.20,10.0,SSE,11.5,-,N/A,,Clear,150,2013-12-09 18:56:00
10:16 AM,39.2,30.2,70,30.20,10.0,SSE,11.5,-,N/A,,Clear,160,2013-12-09 19:16:00
10:36 AM,39.2,30.2,70,30.20,10.0,SSE,12.7,-,N/A,,Clear,150,2013-12-09 19:36:00
10:56 AM,41.0,30.2,65,30.19,10.0,SSE,15.0,-,N/A,,Clear,150,2013-12-09 19:56:00
11:16 AM,41.0,30.2,65,30.20,10.0,SSE,13.8,-,N/A,,Clear,150,2013-12-09 20:16:00
11:36 AM,42.8,30.2,61,30.19,10.0,SSE,16.1,-,N/A,,Mostly Cloudy,150,2013-12-09 20:36:00
11:56 AM,42.8,32.0,66,30.19,10.0,SSE,17.3,-,N/A,,Mostly Cloudy,150,2013-12-09 20:56:00
12:16 PM,42.8,32.0,66,30.19,10.0,SSE,16.1,-,N/A,,Mostly Cloudy,150,2013-12-09 21:16:00
12:36 PM,44.6,33.8,66,30.18,10.0,SE,15.0,-,N/A,,Overcast,140,2013-12-09 21:36:00
12:56 PM,44.6,33.8,66,30.18,10.0,SSE,16.1,-,N/A,,Overcast,150,2013-12-09 21:56:00
1:16 PM,44.6,33.8,66,30.17,10.0,SE,12.7,-,N/A,,Overcast,140,2013-12-09 22:16:00
1:36 PM,46.4,33.8,62,30.16,10.0,SE,10.4,-,N/A,,Overcast,140,2013-12-09 22:36:00
1:56 PM,44.6,33.8,66,30.16,10.0,SSE,10.4,-,N/A,,Overcast,150,2013-12-09 22:56:00
2:16 PM,44.6,33.8,66,30.17,10.0,SSE,6.9,-,N/A,,Overcast,150,2013-12-09 23:16:00
2:36 PM,44.6,32.0,61,30.16,10.0,SSE,10.4,-,N/A,,Overcast,160,2013-12-09 23:36:00
2:56 PM,44.6,33.8,66,30.15,10.0,SSE,9.2,-,N/A,,Overcast,160,2013-12-09 23:56:00
3:16 PM,44.6,33.8,66,30.14,10.0,South,9.2,-,N/A,,Overcast,170,2013-12-10 00:16:00
3:36 PM,44.6,33.8,66,30.14,10.0,South,10.4,-,N/A,,Overcast,170,2013-12-10 00:36:00
3:56 PM,44.6,33.8,66,30.13,10.0,South,12.7,-,N/A,,Overcast,170,2013-12-10 00:56:00
4:16 PM,44.6,33.8,66,30.12,10.0,South,9.2,-,N/A,,Overcast,180,2013-12-10 01:16:00
4:36 PM,42.8,33.8,70,30.11,10.0,South,11.5,-,N/A,,Overcast,170,2013-12-10 01:36:00
4:56 PM,42.8,30.2,61,30.12,10.0,ESE,5.8,-,N/A,,Overcast,110,2013-12-10 01:56:00
5:16 PM,42.8,33.8,70,30.12,10.0,East,6.9,-,N/A,,Overcast,100,2013-12-10 02:16:00
5:36 PM,42.8,30.2,61,30.11,10.0,NE,4.6,-,N/A,,Overcast,50,2013-12-10 02:36:00
5:56 PM,41.0,28.4,61,30.11,10.0,Calm,Calm,-,N/A,,Overcast,0,2013-12-10 02:56:00
6:16 PM,42.8,28.4,57,30.10,10.0,Calm,Calm,-,N/A,,Overcast,0,2013-12-10 03:16:00
6:36 PM,42.8,30.2,61,30.10,10.0,East,3.5,-,N/A,,Overcast,90,2013-12-10 03:36:00
6:56 PM,42.8,28.4,57,30.09,10.0,ENE,3.5,-,N/A,,Overcast,70,2013-12-10 03:56:00
7:16 PM,44.6,30.2,57,30.09,10.0,ENE,4.6,-,N/A,,Overcast,60,2013-12-10 04:16:00
7:36 PM,41.0,30.2,65,30.09,10.0,SSE,6.9,-,N/A,,Overcast,160,2013-12-10 04:36:00
7:56 PM,42.8,32.0,66,30.08,10.0,SE,9.2,-,N/A,,Overcast,140,2013-12-10 04:56:00
8:16 PM,42.8,32.0,66,30.08,10.0,ESE,9.2,-,N/A,,Overcast,120,2013-12-10 05:16:00
8:36 PM,41.0,30.2,65,30.07,10.0,ENE,8.1,-,N/A,,Overcast,70,2013-12-10 05:36:00
8:56 PM,41.0,30.2,65,30.07,10.0,East,3.5,-,N/A,,Overcast,80,2013-12-10 05:56:00
9:16 PM,41.0,30.2,65,30.07,10.0,Calm,Calm,-,N/A,,Overcast,0,2013-12-10 06:16:00
9:36 PM,41.0,30.2,65,30.06,10.0,NW,4.6,-,N/A,,Mostly Cloudy,320,2013-12-10 06:36:00
9:56 PM,41.0,30.2,65,30.05,10.0,NNE,3.5,-,N/A,,Mostly Cloudy,20,2013-12-10 06:56:00
10:16 PM,44.6,30.2,57,30.05,10.0,East,4.6,-,N/A,,Mostly Cloudy,100,2013-12-10 07:16:00
10:36 PM,42.8,30.2,61,30.04,10.0,ESE,5.8,-,N/A,,Overcast,110,2013-12-10 07:36:00
10:56 PM,42.8,30.2,61,30.04,10.0,East,8.1,-,N/A,,Overcast,80,2013-12-10 07:56:00
11:16 PM,44.6,30.2,57,30.03,10.0,East,5.8,-,N/A,,Overcast,100,2013-12-10 08:16:00
11:36 PM,42.8,28.4,57,30.02,10.0,SSE,4.6,-,N/A,,Overcast,150,2013-12-10 08:36:00
11:56 PM,42.8,28.4,57,30.02,10.0,Calm,Calm,-,N/A,,Mostly Cloudy,0,2013-12-10 08:56:00